Time,TemperatureF,DewpointF,PressureIn,WindDirection,WindDirectionDegrees,WindSpeedMPH,WindSpeedGustMPH,Humidity,HourlyPrecipIn,Conditions,Clouds,dailyrainin,SoftwareType,DateUTC
2013-01-01 00:00:00,33.9,26.1,29.87,SSW,207,4.0,15.0,73,0.00,,,0.00,HR-IXPWINDi_r2_v1.2.,2013-01-01 05:00:00,
2013-01-01 00:05:00,33.7,26.3,29.85,SSW,209,4.0,14.0,74,0.00,,,0.00,HR-IXPWINDi_r2_v1.2.,2013-01-01 05:05:00,
2013-01-01 00:10:00,33.6,26.5,29.85,SSW,213,5.0,9.0,75,0.00,,,0.00,HR-IXPWINDi_r2_v1.2.,2013-01-01 05:10:00,
2013-01-01 00:16:00,33.5,26.4,29.86,South,180,9.0,9.0,75,0.00,,,0.00,HR-IXPWINDi_r2_v1.2.,2013-01-01 05:16:00,
2013-01-01 00:21:00,33.4,26.6,29.86,SSE,164,4.0,9.0,76,0.00,,,0.00,HR-IXPWINDi_r2_v1.2.,2013-01-01 05:21:00,
2013-01-01 00:26:00,33.5,26.7,29.86,SSW,209,4.0,14.0,76,0.00,,,0.00,HR-IXPWINDi_r2_v1.2.,2013-01-01 05:26:00,
2013-01-01 00:31:00,33.5,26.7,29.86,SSW,201,5.0,14.0,76,0.00,,,0.00,HR-IXPWINDi_r2_v1.2.,2013-01-01 05:31:00,
2013-01-01 00:36:00,33.5,26.7,29.86,SSE,156,6.0,13.0,76,0.00,,,0.00,HR-IXPWINDi_r2_v1.2.,2013-01-01 05:36:00,
2013-01-01 00:41:00,33.5,27.1,29.86,South,177,4.0,9.0,77,0.00,,,0.00,HR-IXPWINDi_r2_v1.2.,2013-01-01 05:41:00,
2013-01-01 00:47:00,33.6,27.1,29.86,SSW,202,6.0,10.0,77,0.00,,,0.00,HR-IXPWINDi_r2_v1.2.,2013-01-01 05:47:00,
2013-01-01 00:52:00,33.8,27.0,29.86,SSW,200,5.0,12.0,76,0.00,,,0.00,HR-IXPWINDi_r2_v1.2.,2013-01-01 05:52:00,
2013-01-01 00:57:00,33.9,27.1,29.86,SSW,202,3.0,13.0,76,0.00,,,0.00,HR-IXPWINDi_r2_v1.2.,2013-01-01 05:57:00,
2013-01-01 01:02:00,34.0,27.2,29.86,South,178,10.0,13.0,76,0.00,,,0.00,HR-IXPWINDi_r2_v1.2.,2013-01-01 06:02:00,
2013-01-01 01:07:00,34.1,27.3,29.86,SSW,192,6.0,14.0,76,0.00,,,0.00,HR-IXPWINDi_r2_v1.2.,2013-01-01 06:07:00,
2013-01-01 01:13:00,34.3,27.2,29.86,South,183,4.0,14.0,75,0.00,,,0.00,HR-IXPWINDi_r2_v1.2.,2013-01-01 06:13:00,
2013-01-01 01:18:00,34.3,27.2,29.86,South,171,2.0,14.0,75,0.00,,,0.00,HR-IXPWINDi_r2_v1.2.,2013-01-01 06:18:00,
2013-01-01 01:23:00,34.3,27.2,29.86,SSW,196,3.0,10.0,75,0.00,,,0.00,HR-IXPWINDi_r2_v1.2.,2013-01-01 06:23:00,
2013-01-01 01:28:00,34.4,27.3,29.86,SSW,202,3.0,10.0,75,0.00,,,0.00,HR-IXPWINDi_r2_v1.2.,2013-01-01 06:28:00,
2013-01-01 01:34:00,34.5,27.4,29.86,South,189,4.0,11.0,75,0.00,,,0.00,HR-IXPWINDi_r2_v1.2.,2013-01-01 06:34:00,
2013-01-01 01:39:00,34.5,27.4,29.85,South,173,3.0,11.0,75,0.00,,,0.00,HR-IXPWINDi_r2_v1.2.,2013-01-01 06:39:00,
2013-01-01 01:44:00,34.4,27.3,29.86,SSW,194,6.0,9.0,75,0.00,,,0.00,HR-IXPWINDi_r2_v1.2.,2013-01-01 06:44:00,
2013-01-01 01:49:00,34.4,27.3,29.86,SSW,196,2.0,9.0,75,0.00,,,0.00,HR-IXPWINDi_r2_v1.2.,2013-01-01 06:49:00,
2013-01-01 01:55:00,34.4,27.3,29.87,SSW,206,1.0,7.0,75,0.00,,,0.00,HR-IXPWINDi_r2_v1.2.,2013-01-01 06:55:00,
2013-01-01 02:00:00,34.4,27.3,29.87,South,182,2.0,7.0,75,0.00,,,0.00,HR-IXPWINDi_r2_v1.2.,2013-01-01 07:00:00,
2013-01-01 02:05:00,34.4,27.3,29.86,SSW,195,4.0,8.0,75,0.00,,,0.00,HR-IXPWINDi_r2_v1.2.,2013-01-01 07:05:00,
2013-01-01 02:10:00,34.5,27.4,29.86,SSW,202,3.0,8.0,75,0.00,,,0.00,HR-IXPWINDi_r2_v1.2.,2013-01-01 07:10:00,
2013-01-01 02:15:00,34.5,27.4,29.86,South,171,3.0,9.0,75,0.00,,,0.00,HR-IXPWINDi_r2_v1.2.,2013-01-01 07:15:00,
2013-01-01 02:20:00,34.6,27.5,29.86,South,178,4.0,9.0,75,0.00,,,0.00,HR-IXPWINDi_r2_v1.2.,2013-01-01 07:20:00,
2013-01-01 02:26:00,34.7,27.6,29.85,SSW,193,2.0,10.0,75,0.00,,,0.00,HR-IXPWINDi_r2_v1.2.,2013-01-01 07:26:00,
2013-01-01 02:31:00,34.6,27.5,29.85,South,188,3.0,10.0,75,0.00,,,0.00,HR-IXPWINDi_r2_v1.2.,2013-01-01 07:31:00,
2013-01-01 02:36:00,34.8,27.7,29.85,SSW,199,3.0,8.0,75,0.00,,,0.00,HR-IXPWINDi_r2_v1.2.,2013-01-01 07:36:00,
2013-01-01 02:41:00,34.9,27.8,29.85,SSW,194,3.0,10.0,75,0.00,,,0.00,HR-IXPWINDi_r2_v1.2.,2013-01-01 07:41:00,
2013-01-01 02:46:00,34.9,27.8,29.85,South,183,2.0,10.0,75,0.00,,,0.00,HR-IXPWINDi_r2_v1.2.,2013-01-01 07:46:00,
2013-01-01 02:52:00,34.8,27.7,29.85,SSW,202,2.0,7.0,75,0.00,,,0.00,HR-IXPWINDi_r2_v1.2.,2013-01-01 07:52:00,
2013-01-01 02:57:00,34.9,27.8,29.85,South,190,2.0,7.0,75,0.00,,,0.00,HR-IXPWINDi_r2_v1.2.,2013-01-01 07:57:00,
2013-01-01 03:02:00,34.9,27.8,29.85,South,188,1.0,7.0,75,0.00,,,0.00,HR-IXPWINDi_r2_v1.2.,2013-01-01 08:02:00,
2013-01-01 03:07:00,34.9,27.8,29.85,SE,141,4.0,6.0,75,0.00,,,0.00,HR-IXPWINDi_r2_v1.2.,2013-01-01 08:07:00,
2013-01-01 03:13:00,34.9,27.8,29.86,SSE,166,4.0,7.0,75,0.00,,,0.00,HR-IXPWINDi_r2_v1.2.,2013-01-01 08:13:00,
2013-01-01 03:18:00,35.1,28.0,29.86,SSE,164,5.0,8.0,75,0.00,,,0.00,HR-IXPWINDi_r2_v1.2.,2013-01-01 08:18:00,
2013-01-01 03:23:00,35.1,28.0,29.86,SSW,192,3.0,8.0,75,0.00,,,0.00,HR-IXPWINDi_r2_v1.2.,2013-01-01 08:23:00,
2013-01-01 03:28:00,35.2,28.1,29.86,South,173,8.0,11.0,75,0.00,,,0.00,HR-IXPWINDi_r2_v1.2.,2013-01-01 08:28:00,
2013-01-01 03:33:00,35.2,28.1,29.86,SSW,192,2.0,11.0,75,0.00,,,0.00,HR-IXPWINDi_r2_v1.2.,2013-01-01 08:33:00,
2013-01-01 03:39:00,35.1,28.0,29.85,South,187,2.0,8.0,75,0.00,,,0.00,HR-IXPWINDi_r2_v1.2.,2013-01-01 08:39:00,
2013-01-01 03:44:00,35.1,28.0,29.86,South,180,3.0,8.0,75,0.00,,,0.00,HR-IXPWINDi_r2_v1.2.,2013-01-01 08:44:00,
2013-01-01 03:49:00,35.2,28.1,29.86,South,174,3.0,8.0,75,0.00,,,0.00,HR-IXPWINDi_r2_v1.2.,2013-01-01 08:49:00,
2013-01-01 03:54:00,35.3,28.2,29.85,South,169,2.0,9.0,75,0.00,,,0.00,HR-IXPWINDi_r2_v1.2.,2013-01-01 08:54:00,
2013-01-01 03:59:00,35.2,28.1,29.85,SSE,163,3.0,9.0,75,0.00,,,0.00,HR-IXPWINDi_r2_v1.2.,2013-01-01 08:59:00,
2013-01-01 04:04:00,35.3,28.2,29.85,South,183,3.0,9.0,75,0.00,,,0.00,HR-IXPWINDi_r2_v1.2.,2013-01-01 09:04:00,
2013-01-01 04:10:00,35.3,28.2,29.85,SW,216,1.0,9.0,75,0.00,,,0.00,HR-IXPWINDi_r2_v1.2.,2013-01-01 09:10:00,
2013-01-01 04:15:00,35.3,28.2,29.86,SSW,199,2.0,6.0,75,0.00,,,0.00,HR-IXPWINDi_r2_v1.2.,2013-01-01 09:15:00,
2013-01-01 04:20:00,35.2,28.4,29.86,SSW,206,3.0,7.0,76,0.00,,,0.00,HR-IXPWINDi_r2_v1.2.,2013-01-01 09:20:00,
2013-01-01 04:25:00,35.3,28.5,29.85,South,189,8.0,11.0,76,0.00,,,0.00,HR-IXPWINDi_r2_v1.2.,2013-01-01 09:25:00,
2013-01-01 04:30:00,35.4,28.2,29.85,South,182,4.0,11.0,75,0.00,,,0.00,HR-IXPWINDi_r2_v1.2.,2013-01-01 09:30:00,
2013-01-01 04:35:00,35.4,28.2,29.85,SE,138,4.0,11.0,75,0.00,,,0.00,HR-IXPWINDi_r2_v1.2.,2013-01-01 09:35:00,
2013-01-01 04:41:00,35.5,28.3,29.85,South,174,1.0,8.0,75,0.00,,,0.00,HR-IXPWINDi_r2_v1.2.,2013-01-01 09:41:00,
2013-01-01 04:46:00,35.4,28.6,29.85,SSW,199,1.0,8.0,76,0.00,,,0.00,HR-IXPWINDi_r2_v1.2.,2013-01-01 09:46:00,
2013-01-01 04:51:00,35.5,28.3,29.86,SW,216,2.0,8.0,75,0.00,,,0.00,HR-IXPWINDi_r2_v1.2.,2013-01-01 09:51:00,
2013-01-01 04:56:00,35.4,28.6,29.86,South,183,1.0,7.0,76,0.00,,,0.00,HR-IXPWINDi_r2_v1.2.,2013-01-01 09:56:00,
2013-01-01 05:02:00,35.5,28.7,29.86,SSE,166,2.0,6.0,76,0.00,,,0.00,HR-IXPWINDi_r2_v1.2.,2013-01-01 10:02:00,
2013-01-01 05:07:00,35.5,28.7,29.85,SSW,196,5.0,7.0,76,0.00,,,0.00,HR-IXPWINDi_r2_v1.2.,2013-01-01 10:07:00,
2013-01-01 05:12:00,35.6,28.4,29.85,SW,216,2.0,8.0,75,0.00,,,0.00,HR-IXPWINDi_r2_v1.2.,2013-01-01 10:12:00,
2013-01-01 05:17:00,35.6,28.8,29.85,South,169,5.0,8.0,76,0.00,,,0.00,HR-IXPWINDi_r2_v1.2.,2013-01-01 10:17:00,
2013-01-01 05:23:00,35.5,28.7,29.85,SSW,206,1.0,6.0,76,0.00,,,0.00,HR-IXPWINDi_r2_v1.2.,2013-01-01 10:23:00,
2013-01-01 05:28:00,35.4,28.6,29.85,South,185,1.0,6.0,76,0.00,,,0.00,HR-IXPWINDi_r2_v1.2.,2013-01-01 10:28:00,
2013-01-01 05:33:00,35.4,28.6,29.85,SSW,202,3.0,4.0,76,0.00,,,0.00,HR-IXPWINDi_r2_v1.2.,2013-01-01 10:33:00,
2013-01-01 05:38:00,35.3,28.8,29.86,SSE,163,0.0,4.0,77,0.00,,,0.00,HR-IXPWINDi_r2_v1.2.,2013-01-01 10:38:00,
2013-01-01 05:44:00,35.4,28.9,29.86,SSW,202,0.0,5.0,77,0.00,,,0.00,HR-IXPWINDi_r2_v1.2.,2013-01-01 10:44:00,
2013-01-01 05:49:00,35.3,28.5,29.86,SSW,198,0.0,5.0,76,0.00,,,0.00,HR-IXPWINDi_r2_v1.2.,2013-01-01 10:49:00,
2013-01-01 05:54:00,35.2,28.7,29.87,SSW,206,0.0,1.0,77,0.00,,,0.00,HR-IXPWINDi_r2_v1.2.,2013-01-01 10:54:00,
2013-01-01 05:59:00,35.1,28.6,29.86,SE,133,1.0,2.0,77,0.00,,,0.00,HR-IXPWINDi_r2_v1.2.,2013-01-01 10:59:00,
2013-01-01 06:04:00,35.1,28.6,29.86,South,175,0.0,6.0,77,0.00,,,0.00,HR-IXPWINDi_r2_v1.2.,2013-01-01 11:04:00,
2013-01-01 06:09:00,35.2,28.7,29.86,WSW,245,0.0,11.0,77,0.00,,,0.00,HR-IXPWINDi_r2_v1.2.,2013-01-01 11:09:00,
2013-01-01 06:15:00,35.1,28.3,29.86,WSW,244,0.0,11.0,76,0.00,,,0.00,HR-IXPWINDi_r2_v1.2.,2013-01-01 11:15:00,
2013-01-01 06:20:00,34.9,28.4,29.87,WSW,244,0.0,1.0,77,0.00,,,0.00,HR-IXPWINDi_r2_v1.2.,2013-01-01 11:20:00,
2013-01-01 06:25:00,34.9,28.4,29.87,WSW,243,0.0,0.0,77,0.00,,,0.00,HR-IXPWINDi_r2_v1.2.,2013-01-01 11:25:00,
2013-01-01 06:30:00,34.7,28.2,29.87,WSW,242,0.0,0.0,77,0.00,,,0.00,HR-IXPWINDi_r2_v1.2.,2013-01-01 11:30:00,
2013-01-01 06:35:00,34.6,28.1,29.87,SSE,152,0.0,2.0,77,0.00,,,0.00,HR-IXPWINDi_r2_v1.2.,2013-01-01 11:35:00,
2013-01-01 06:40:00,34.6,28.1,29.86,SSE,166,0.0,2.0,77,0.00,,,0.00,HR-IXPWINDi_r2_v1.2.,2013-01-01 11:40:00,
2013-01-01 06:45:00,34.4,27.9,29.87,SW,236,0.0,1.0,77,0.00,,,0.00,HR-IXPWINDi_r2_v1.2.,2013-01-01 11:45:00,
2013-01-01 06:51:00,34.3,27.8,29.87,SW,234,0.0,1.0,77,0.00,,,0.00,HR-IXPWINDi_r2_v1.2.,2013-01-01 11:51:00,
2013-01-01 06:56:00,34.0,27.8,29.88,West,279,0.0,1.0,78,0.00,,,0.00,HR-IXPWINDi_r2_v1.2.,2013-01-01 11:56:00,
2013-01-01 07:01:00,33.7,27.6,29.88,West,280,1.0,1.0,78,0.00,,,0.00,HR-IXPWINDi_r2_v1.2.,2013-01-01 12:01:00,
2013-01-01 07:06:00,33.5,27.7,29.88,West,279,0.0,1.0,79,0.00,,,0.00,HR-IXPWINDi_r2_v1.2.,2013-01-01 12:06:00,
2013-01-01 07:11:00,33.7,26.3,29.88,NE,47,0.0,1.0,74,0.00,,,0.00,HR-IXPWINDi_r2_v1.2.,2013-01-01 12:11:00,
2013-01-01 07:16:00,33.6,27.1,29.88,NE,47,0.0,1.0,77,0.00,,,0.00,HR-IXPWINDi_r2_v1.2.,2013-01-01 12:16:00,
2013-01-01 07:22:00,33.6,26.5,29.87,NE,48,0.0,1.0,75,0.00,,,0.00,HR-IXPWINDi_r2_v1.2.,2013-01-01 12:22:00,
2013-01-01 07:27:00,33.1,26.7,29.87,NE,48,0.0,1.0,77,0.00,,,0.00,HR-IXPWINDi_r2_v1.2.,2013-01-01 12:27:00,
2013-01-01 07:32:00,33.1,25.0,29.88,NNW,331,3.0,5.0,72,0.00,,,0.00,HR-IXPWINDi_r2_v1.2.,2013-01-01 12:32:00,
2013-01-01 07:37:00,33.6,26.5,29.87,NNW,332,1.0,5.0,75,0.00,,,0.00,HR-IXPWINDi_r2_v1.2.,2013-01-01 12:37:00,
2013-01-01 07:43:00,33.3,24.9,29.87,NNW,331,0.0,3.0,71,0.00,,,0.00,HR-IXPWINDi_r2_v1.2.,2013-01-01 12:43:00,
2013-01-01 07:48:00,33.2,25.1,29.87,NNW,332,0.0,0.0,72,0.00,,,0.00,HR-IXPWINDi_r2_v1.2.,2013-01-01 12:48:00,
2013-01-01 07:53:00,33.1,24.4,29.87,SSW,206,0.0,2.0,70,0.00,,,0.00,HR-IXPWINDi_r2_v1.2.,2013-01-01 12:53:00,
2013-01-01 07:58:00,33.4,23.6,29.88,SSW,206,0.0,2.0,67,0.00,,,0.00,HR-IXPWINDi_r2_v1.2.,2013-01-01 12:58:00,
2013-01-01 08:03:00,33.5,24.8,29.88,SSW,206,0.0,1.0,70,0.00,,,0.00,HR-IXPWINDi_r2_v1.2.,2013-01-01 13:03:00,
2013-01-01 08:09:00,33.4,24.7,29.88,SSW,206,0.0,0.0,70,0.00,,,0.00,HR-IXPWINDi_r2_v1.2.,2013-01-01 13:09:00,
2013-01-01 08:14:00,33.1,25.4,29.88,SSW,206,0.0,0.0,73,0.00,,,0.00,HR-IXPWINDi_r2_v1.2.,2013-01-01 13:14:00,
2013-01-01 08:19:00,32.9,25.2,29.88,SSW,206,0.0,1.0,73,0.00,,,0.00,HR-IXPWINDi_r2_v1.2.,2013-01-01 13:19:00,
2013-01-01 08:24:00,32.8,25.1,29.88,SSE,156,0.0,2.0,73,0.00,,,0.00,HR-IXPWINDi_r2_v1.2.,2013-01-01 13:24:00,
2013-01-01 08:30:00,33.1,24.0,29.88,SSE,157,0.0,2.0,69,0.00,,,0.00,HR-IXPWINDi_r2_v1.2.,2013-01-01 13:30:00,
2013-01-01 08:35:00,33.4,24.0,29.88,SW,230,3.0,6.0,68,0.00,,,0.00,HR-IXPWINDi_r2_v1.2.,2013-01-01 13:35:00,
2013-01-01 08:40:00,34.5,23.6,29.89,South,184,0.0,6.0,64,0.00,,,0.00,HR-IXPWINDi_r2_v1.2.,2013-01-01 13:40:00,
2013-01-01 08:45:00,34.8,23.5,29.88,South,177,1.0,4.0,63,0.00,,,0.00,HR-IXPWINDi_r2_v1.2.,2013-01-01 13:45:00,
2013-01-01 08:50:00,35.1,23.8,29.88,South,189,0.0,4.0,63,0.00,,,0.00,HR-IXPWINDi_r2_v1.2.,2013-01-01 13:50:00,
2013-01-01 08:55:00,35.3,24.0,29.88,South,190,0.0,4.0,63,0.00,,,0.00,HR-IXPWINDi_r2_v1.2.,2013-01-01 13:55:00,
2013-01-01 09:00:00,35.6,24.2,29.88,SSW,203,2.0,3.0,63,0.00,,,0.00,HR-IXPWINDi_r2_v1.2.,2013-01-01 14:00:00,
2013-01-01 09:06:00,35.8,24.0,29.88,SSW,206,4.0,6.0,62,0.00,,,0.00,HR-IXPWINDi_r2_v1.2.,2013-01-01 14:06:00,
2013-01-01 09:11:00,35.9,24.1,29.89,SSW,201,2.0,6.0,62,0.00,,,0.00,HR-IXPWINDi_r2_v1.2.,2013-01-01 14:11:00,
2013-01-01 09:16:00,36.0,24.6,29.89,South,178,5.0,5.0,63,0.00,,,0.00,HR-IXPWINDi_r2_v1.2.,2013-01-01 14:16:00,
2013-01-01 09:21:00,35.9,24.5,29.89,SSW,201,2.0,6.0,63,0.00,,,0.00,HR-IXPWINDi_r2_v1.2.,2013-01-01 14:21:00,
2013-01-01 09:26:00,36.0,24.2,29.90,SSW,207,3.0,12.0,62,0.00,,,0.00,HR-IXPWINDi_r2_v1.2.,2013-01-01 14:26:00,
2013-01-01 09:31:00,36.1,23.9,29.90,SSW,192,6.0,12.0,61,0.00,,,0.00,HR-IXPWINDi_r2_v1.2.,2013-01-01 14:31:00,
2013-01-01 09:36:00,36.1,23.6,29.90,SSW,202,3.0,8.0,60,0.00,,,0.00,HR-IXPWINDi_r2_v1.2.,2013-01-01 14:36:00,
2013-01-01 09:42:00,36.2,24.0,29.90,SSW,202,4.0,9.0,61,0.00,,,0.00,HR-IXPWINDi_r2_v1.2.,2013-01-01 14:42:00,
2013-01-01 09:47:00,36.1,23.9,29.90,SSW,211,2.0,9.0,61,0.00,,,0.00,HR-IXPWINDi_r2_v1.2.,2013-01-01 14:47:00,
2013-01-01 09:52:00,36.0,24.2,29.90,WNW,290,2.0,7.0,62,0.00,,,0.00,HR-IXPWINDi_r2_v1.2.,2013-01-01 14:52:00,
2013-01-01 09:57:00,36.0,24.2,29.89,SW,226,2.0,12.0,62,0.00,,,0.00,HR-IXPWINDi_r2_v1.2.,2013-01-01 14:57:00,
2013-01-01 10:02:00,36.1,22.7,29.90,SW,214,6.0,13.0,58,0.00,,,0.00,HR-IXPWINDi_r2_v1.2.,2013-01-01 15:02:00,
2013-01-01 10:07:00,36.3,22.5,29.90,WSW,243,1.0,13.0,57,0.00,,,0.00,HR-IXPWINDi_r2_v1.2.,2013-01-01 15:07:00,
2013-01-01 10:13:00,36.3,22.9,29.89,SSW,203,4.0,11.0,58,0.00,,,0.00,HR-IXPWINDi_r2_v1.2.,2013-01-01 15:13:00,
2013-01-01 10:18:00,36.3,22.5,29.89,WSW,245,4.0,11.0,57,0.00,,,0.00,HR-IXPWINDi_r2_v1.2.,2013-01-01 15:18:00,
2013-01-01 10:23:00,36.5,22.7,29.89,SW,235,4.0,10.0,57,0.00,,,0.00,HR-IXPWINDi_r2_v1.2.,2013-01-01 15:23:00,
2013-01-01 10:28:00,36.7,22.5,29.89,West,266,3.0,10.0,56,0.00,,,0.00,HR-IXPWINDi_r2_v1.2.,2013-01-01 15:28:00,
2013-01-01 10:33:00,36.7,22.1,29.89,West,262,2.0,10.0,55,0.00,,,0.00,HR-IXPWINDi_r2_v1.2.,2013-01-01 15:33:00,
2013-01-01 10:38:00,36.9,22.2,29.88,SW,227,2.0,9.0,55,0.00,,,0.00,HR-IXPWINDi_r2_v1.2.,2013-01-01 15:38:00,
2013-01-01 10:43:00,37.0,21.9,29.88,SW,215,8.0,13.0,54,0.00,,,0.00,HR-IXPWINDi_r2_v1.2.,2013-01-01 15:43:00,
2013-01-01 10:49:00,36.9,21.8,29.89,West,279,2.0,13.0,54,0.00,,,0.00,HR-IXPWINDi_r2_v1.2.,2013-01-01 15:49:00,
2013-01-01 10:54:00,36.8,21.7,29.89,South,178,6.0,11.0,54,0.00,,,0.00,HR-IXPWINDi_r2_v1.2.,2013-01-01 15:54:00,
2013-01-01 10:59:00,36.7,21.6,29.89,SW,226,3.0,8.0,54,0.00,,,0.01,HR-IXPWINDi_r2_v1.2.,2013-01-01 15:59:00,
2013-01-01 11:04:00,36.5,21.4,29.89,SW,224,2.0,12.0,54,0.00,,,0.01,HR-IXPWINDi_r2_v1.2.,2013-01-01 16:04:00,
2013-01-01 11:09:00,36.5,21.4,29.89,West,278,0.0,12.0,54,0.00,,,0.01,HR-IXPWINDi_r2_v1.2.,2013-01-01 16:09:00,
2013-01-01 11:14:00,36.6,21.5,29.89,SSW,206,4.0,8.0,54,0.00,,,0.01,HR-IXPWINDi_r2_v1.2.,2013-01-01 16:14:00,
2013-01-01 11:19:00,36.6,20.6,29.88,SW,226,2.0,9.0,52,0.00,,,0.01,HR-IXPWINDi_r2_v1.2.,2013-01-01 16:19:00,
2013-01-01 11:24:00,36.6,20.6,29.88,WSW,248,4.0,9.0,52,0.00,,,0.01,HR-IXPWINDi_r2_v1.2.,2013-01-01 16:24:00,
2013-01-01 11:30:00,36.4,20.5,29.87,West,269,2.0,8.0,52,0.00,,,0.01,HR-IXPWINDi_r2_v1.2.,2013-01-01 16:30:00,
2013-01-01 11:35:00,36.4,20.0,29.87,West,261,2.0,12.0,51,0.00,,,0.01,HR-IXPWINDi_r2_v1.2.,2013-01-01 16:35:00,
2013-01-01 11:40:00,36.4,20.5,29.87,SW,230,3.0,12.0,52,0.00,,,0.01,HR-IXPWINDi_r2_v1.2.,2013-01-01 16:40:00,
2013-01-01 11:45:00,36.7,20.7,29.87,West,275,3.0,9.0,52,0.00,,,0.01,HR-IXPWINDi_r2_v1.2.,2013-01-01 16:45:00,
2013-01-01 11:50:00,36.9,20.9,29.87,WSW,240,2.0,6.0,52,0.00,,,0.02,HR-IXPWINDi_r2_v1.2.,2013-01-01 16:50:00,
2013-01-01 11:56:00,36.9,20.5,29.86,NW,313,5.0,6.0,51,0.00,,,0.02,HR-IXPWINDi_r2_v1.2.,2013-01-01 16:56:00,
2013-01-01 12:01:00,36.6,19.7,29.86,WSW,258,2.0,9.0,50,0.00,,,0.02,HR-IXPWINDi_r2_v1.2.,2013-01-01 17:01:00,
2013-01-01 12:06:00,36.6,20.2,29.86,SW,235,1.0,9.0,51,0.00,,,0.02,HR-IXPWINDi_r2_v1.2.,2013-01-01 17:06:00,
2013-01-01 12:11:00,36.4,20.0,29.86,WSW,245,6.0,13.0,51,0.00,,,0.02,HR-IXPWINDi_r2_v1.2.,2013-01-01 17:11:00,
2013-01-01 12:16:00,36.4,20.0,29.86,WSW,257,1.0,13.0,51,0.00,,,0.02,HR-IXPWINDi_r2_v1.2.,2013-01-01 17:16:00,
2013-01-01 12:21:00,36.4,20.5,29.86,SW,214,1.0,6.0,52,0.00,,,0.02,HR-IXPWINDi_r2_v1.2.,2013-01-01 17:21:00,
2013-01-01 12:27:00,36.4,20.0,29.86,WSW,246,1.0,11.0,51,0.00,,,0.02,HR-IXPWINDi_r2_v1.2.,2013-01-01 17:27:00,
2013-01-01 12:32:00,36.7,19.8,29.86,WNW,292,5.0,11.0,50,0.00,,,0.02,HR-IXPWINDi_r2_v1.2.,2013-01-01 17:32:00,
2013-01-01 12:37:00,37.0,20.1,29.86,WSW,244,6.0,7.0,50,0.00,,,0.02,HR-IXPWINDi_r2_v1.2.,2013-01-01 17:37:00,
2013-01-01 12:42:00,36.7,19.8,29.86,SSW,197,7.0,11.0,50,0.00,,,0.02,HR-IXPWINDi_r2_v1.2.,2013-01-01 17:42:00,
2013-01-01 12:47:00,36.3,19.9,29.87,SSW,206,5.0,18.0,51,0.00,,,0.02,HR-IXPWINDi_r2_v1.2.,2013-01-01 17:47:00,
2013-01-01 12:52:00,36.0,19.6,29.86,SW,223,6.0,18.0,51,0.00,,,0.02,HR-IXPWINDi_r2_v1.2.,2013-01-01 17:52:00,
2013-01-01 12:57:00,35.6,18.8,29.85,South,188,3.0,15.0,50,0.00,,,0.03,HR-IXPWINDi_r2_v1.2.,2013-01-01 17:57:00,
2013-01-01 13:02:00,35.4,19.1,29.86,SW,220,9.0,15.0,51,0.00,,,0.03,HR-IXPWINDi_r2_v1.2.,2013-01-01 18:02:00,
2013-01-01 13:08:00,35.4,19.1,29.86,SSW,210,6.0,11.0,51,0.00,,,0.03,HR-IXPWINDi_r2_v1.2.,2013-01-01 18:08:00,
2013-01-01 13:13:00,35.4,18.6,29.86,West,275,10.0,12.0,50,0.00,,,0.03,HR-IXPWINDi_r2_v1.2.,2013-01-01 18:13:00,
2013-01-01 13:18:00,35.2,18.9,29.86,NW,309,3.0,13.0,51,0.00,,,0.03,HR-IXPWINDi_r2_v1.2.,2013-01-01 18:18:00,
2013-01-01 13:23:00,35.0,18.2,29.86,SSW,210,3.0,13.0,50,0.00,,,0.03,HR-IXPWINDi_r2_v1.2.,2013-01-01 18:23:00,
2013-01-01 13:28:00,35.0,17.8,29.86,SSW,200,4.0,10.0,49,0.00,,,0.03,HR-IXPWINDi_r2_v1.2.,2013-01-01 18:28:00,
2013-01-01 13:34:00,35.1,17.9,29.86,SW,228,1.0,12.0,49,0.00,,,0.03,HR-IXPWINDi_r2_v1.2.,2013-01-01 18:34:00,
2013-01-01 13:39:00,35.3,18.1,29.86,SSW,210,3.0,12.0,49,0.00,,,0.03,HR-IXPWINDi_r2_v1.2.,2013-01-01 18:39:00,
2013-01-01 13:44:00,35.3,18.1,29.85,WNW,297,3.0,8.0,49,0.00,,,0.03,HR-IXPWINDi_r2_v1.2.,2013-01-01 18:44:00,
2013-01-01 13:49:00,35.3,17.6,29.85,West,259,2.0,8.0,48,0.00,,,0.03,HR-IXPWINDi_r2_v1.2.,2013-01-01 18:49:00,
2013-01-01 13:54:00,35.3,18.1,29.85,WSW,248,2.0,6.0,49,0.00,,,0.03,HR-IXPWINDi_r2_v1.2.,2013-01-01 18:54:00,
2013-01-01 13:59:00,35.1,17.4,29.85,SW,227,0.0,7.0,48,0.00,,,0.03,HR-IXPWINDi_r2_v1.2.,2013-01-01 18:59:00,
2013-01-01 14:04:00,34.9,17.2,29.84,WSW,245,0.0,7.0,48,0.00,,,0.03,HR-IXPWINDi_r2_v1.2.,2013-01-01 19:04:00,
2013-01-01 14:10:00,34.9,17.7,29.84,WNW,286,3.0,5.0,49,0.00,,,0.03,HR-IXPWINDi_r2_v1.2.,2013-01-01 19:10:00,
2013-01-01 14:15:00,34.7,17.0,29.84,West,269,1.0,5.0,48,0.00,,,0.03,HR-IXPWINDi_r2_v1.2.,2013-01-01 19:15:00,
2013-01-01 14:20:00,34.7,16.5,29.84,WNW,285,3.0,5.0,47,0.00,,,0.03,HR-IXPWINDi_r2_v1.2.,2013-01-01 19:20:00,
2013-01-01 14:25:00,34.5,16.8,29.83,WSW,252,2.0,6.0,48,0.00,,,0.03,HR-IXPWINDi_r2_v1.2.,2013-01-01 19:25:00,
2013-01-01 14:30:00,34.1,19.2,29.85,NW,314,1.0,6.0,54,0.00,,,0.03,HR-IXPWINDi_r2_v1.2.,2013-01-01 19:30:00,
2013-01-01 14:35:00,33.5,20.7,29.85,NW,307,2.0,5.0,59,0.00,,,0.03,HR-IXPWINDi_r2_v1.2.,2013-01-01 19:35:00,
2013-01-01 14:40:00,33.1,21.5,29.84,North,351,1.0,5.0,62,0.00,,,0.03,HR-IXPWINDi_r2_v1.2.,2013-01-01 19:40:00,
2013-01-01 14:46:00,32.8,22.0,29.85,NW,324,4.0,5.0,64,0.00,,,0.03,HR-IXPWINDi_r2_v1.2.,2013-01-01 19:46:00,
2013-01-01 14:51:00,32.5,22.0,29.86,North,1,1.0,5.0,65,0.00,,,0.03,HR-IXPWINDi_r2_v1.2.,2013-01-01 19:51:00,
2013-01-01 14:56:00,32.4,22.3,29.85,NNW,341,0.0,4.0,66,0.00,,,0.03,HR-IXPWINDi_r2_v1.2.,2013-01-01 19:56:00,
2013-01-01 15:01:00,32.1,21.7,29.85,NNW,348,1.0,3.0,65,0.00,,,0.03,HR-IXPWINDi_r2_v1.2.,2013-01-01 20:01:00,
2013-01-01 15:06:00,32.0,21.9,29.86,NNW,344,0.0,3.0,66,0.00,,,0.03,HR-IXPWINDi_r2_v1.2.,2013-01-01 20:06:00,
2013-01-01 15:12:00,31.8,22.1,29.86,ENE,57,0.0,3.0,67,0.00,,,0.03,HR-IXPWINDi_r2_v1.2.,2013-01-01 20:12:00,
2013-01-01 15:17:00,31.9,22.2,29.86,ENE,59,1.0,1.0,67,0.00,,,0.03,HR-IXPWINDi_r2_v1.2.,2013-01-01 20:17:00,
2013-01-01 15:22:00,31.8,21.7,29.87,ENE,61,0.0,1.0,66,0.00,,,0.03,HR-IXPWINDi_r2_v1.2.,2013-01-01 20:22:00,
2013-01-01 15:27:00,31.6,21.6,29.87,NNE,27,0.0,1.0,66,0.00,,,0.03,HR-IXPWINDi_r2_v1.2.,2013-01-01 20:27:00,
2013-01-01 15:32:00,31.6,21.6,29.87,NNE,27,0.0,1.0,66,0.00,,,0.03,HR-IXPWINDi_r2_v1.2.,2013-01-01 20:32:00,
2013-01-01 15:38:00,31.5,22.2,29.87,NNE,27,0.0,1.0,68,0.00,,,0.03,HR-IXPWINDi_r2_v1.2.,2013-01-01 20:38:00,
2013-01-01 15:43:00,31.3,21.6,29.87,NNE,27,0.0,0.0,67,0.00,,,0.03,HR-IXPWINDi_r2_v1.2.,2013-01-01 20:43:00,
2013-01-01 15:48:00,31.3,21.3,29.87,WNW,298,0.0,4.0,66,0.00,,,0.03,HR-IXPWINDi_r2_v1.2.,2013-01-01 20:48:00,
2013-01-01 15:53:00,31.4,20.6,29.87,NNW,341,1.0,4.0,64,0.00,,,0.03,HR-IXPWINDi_r2_v1.2.,2013-01-01 20:53:00,
2013-01-01 15:58:00,31.4,19.9,29.88,NNW,335,4.0,9.0,62,0.00,,,0.03,HR-IXPWINDi_r2_v1.2.,2013-01-01 20:58:00,
2013-01-01 16:04:00,31.2,19.3,29.88,WSW,258,1.0,9.0,61,0.00,,,0.03,HR-IXPWINDi_r2_v1.2.,2013-01-01 21:04:00,
2013-01-01 16:09:00,31.1,19.2,29.88,SW,236,2.0,8.0,61,0.00,,,0.03,HR-IXPWINDi_r2_v1.2.,2013-01-01 21:09:00,
2013-01-01 16:14:00,30.9,19.0,29.89,WSW,240,1.0,8.0,61,0.00,,,0.03,HR-IXPWINDi_r2_v1.2.,2013-01-01 21:14:00,
2013-01-01 16:19:00,30.7,18.1,29.89,WSW,254,5.0,8.0,59,0.00,,,0.03,HR-IXPWINDi_r2_v1.2.,2013-01-01 21:19:00,
2013-01-01 16:24:00,30.6,17.6,29.89,WNW,283,1.0,9.0,58,0.00,,,0.03,HR-IXPWINDi_r2_v1.2.,2013-01-01 21:24:00,
2013-01-01 16:30:00,30.2,17.2,29.89,SW,227,1.0,9.0,58,0.00,,,0.03,HR-IXPWINDi_r2_v1.2.,2013-01-01 21:30:00,
2013-01-01 16:35:00,29.9,16.5,29.90,West,276,3.0,4.0,57,0.00,,,0.03,HR-IXPWINDi_r2_v1.2.,2013-01-01 21:35:00,
2013-01-01 16:40:00,29.7,15.9,29.91,WSW,253,1.0,4.0,56,0.00,,,0.03,HR-IXPWINDi_r2_v1.2.,2013-01-01 21:40:00,
2013-01-01 16:45:00,29.6,16.3,29.90,SW,227,0.0,4.0,57,0.00,,,0.03,HR-IXPWINDi_r2_v1.2.,2013-01-01 21:45:00,
2013-01-01 16:50:00,29.2,15.5,29.91,SW,224,0.0,3.0,56,0.00,,,0.03,HR-IXPWINDi_r2_v1.2.,2013-01-01 21:50:00,
2013-01-01 16:56:00,28.9,15.6,29.91,WSW,247,0.0,2.0,57,0.00,,,0.03,HR-IXPWINDi_r2_v1.2.,2013-01-01 21:56:00,
2013-01-01 17:01:00,28.6,15.3,29.91,SW,221,0.0,2.0,57,0.00,,,0.03,HR-IXPWINDi_r2_v1.2.,2013-01-01 22:01:00,
2013-01-01 17:06:00,28.5,15.6,29.92,SW,222,0.0,2.0,58,0.00,,,0.03,HR-IXPWINDi_r2_v1.2.,2013-01-01 22:06:00,
2013-01-01 17:11:00,28.0,15.2,29.92,SW,223,0.0,1.0,58,0.00,,,0.03,HR-IXPWINDi_r2_v1.2.,2013-01-01 22:11:00,
2013-01-01 17:17:00,28.0,14.8,29.92,SW,233,0.0,1.0,57,0.00,,,0.03,HR-IXPWINDi_r2_v1.2.,2013-01-01 22:17:00,
2013-01-01 17:22:00,28.0,15.2,29.92,SW,233,0.0,1.0,58,0.00,,,0.03,HR-IXPWINDi_r2_v1.2.,2013-01-01 22:22:00,
2013-01-01 17:27:00,27.7,14.9,29.92,SW,233,0.0,1.0,58,0.00,,,0.03,HR-IXPWINDi_r2_v1.2.,2013-01-01 22:27:00,
2013-01-01 17:32:00,27.1,14.7,29.93,SW,233,0.0,0.0,59,0.00,,,0.03,HR-IXPWINDi_r2_v1.2.,2013-01-01 22:32:00,
2013-01-01 17:37:00,27.0,14.6,29.93,South,178,0.0,1.0,59,0.00,,,0.03,HR-IXPWINDi_r2_v1.2.,2013-01-01 22:37:00,
2013-01-01 17:43:00,27.1,14.3,29.94,ENE,65,0.0,2.0,58,0.00,,,0.03,HR-IXPWINDi_r2_v1.2.,2013-01-01 22:43:00,
2013-01-01 17:48:00,27.1,13.9,29.95,West,261,0.0,3.0,57,0.00,,,0.03,HR-IXPWINDi_r2_v1.2.,2013-01-01 22:48:00,
2013-01-01 17:53:00,27.4,14.2,29.94,SW,226,0.0,4.0,57,0.00,,,0.03,HR-IXPWINDi_r2_v1.2.,2013-01-01 22:53:00,
2013-01-01 17:58:00,27.4,13.8,29.94,SW,226,0.0,4.0,56,0.00,,,0.03,HR-IXPWINDi_r2_v1.2.,2013-01-01 22:58:00,
2013-01-01 18:04:00,27.5,13.9,29.94,WSW,240,0.0,3.0,56,0.00,,,0.03,HR-IXPWINDi_r2_v1.2.,2013-01-01 23:04:00,
2013-01-01 18:09:00,27.4,13.8,29.95,West,265,0.0,3.0,56,0.00,,,0.03,HR-IXPWINDi_r2_v1.2.,2013-01-01 23:09:00,
2013-01-01 18:14:00,27.2,13.6,29.96,SW,226,0.0,2.0,56,0.00,,,0.03,HR-IXPWINDi_r2_v1.2.,2013-01-01 23:14:00,
2013-01-01 18:19:00,27.1,13.5,29.96,SW,233,1.0,1.0,56,0.00,,,0.03,HR-IXPWINDi_r2_v1.2.,2013-01-01 23:19:00,
2013-01-01 18:24:00,27.2,14.0,29.96,SSW,206,0.0,6.0,57,0.00,,,0.03,HR-IXPWINDi_r2_v1.2.,2013-01-01 23:24:00,
2013-01-01 18:30:00,27.1,13.5,29.96,SW,233,1.0,6.0,56,0.00,,,0.03,HR-IXPWINDi_r2_v1.2.,2013-01-01 23:30:00,
2013-01-01 18:35:00,27.0,13.8,29.97,SW,235,0.0,4.0,57,0.00,,,0.03,HR-IXPWINDi_r2_v1.2.,2013-01-01 23:35:00,
2013-01-01 18:40:00,26.9,13.3,29.97,West,278,0.0,3.0,56,0.00,,,0.03,HR-IXPWINDi_r2_v1.2.,2013-01-01 23:40:00,
2013-01-01 18:45:00,26.9,13.3,29.96,SW,233,0.0,3.0,56,0.00,,,0.03,HR-IXPWINDi_r2_v1.2.,2013-01-01 23:45:00,
2013-01-01 18:51:00,26.5,13.4,29.96,SW,233,0.0,1.0,57,0.00,,,0.03,HR-IXPWINDi_r2_v1.2.,2013-01-01 23:51:00,
2013-01-01 18:56:00,26.2,13.5,29.97,SW,233,0.0,0.0,58,0.00,,,0.03,HR-IXPWINDi_r2_v1.2.,2013-01-01 23:56:00,
2013-01-01 19:01:00,25.7,13.8,29.97,SW,233,0.0,1.0,60,0.00,,,0.03,HR-IXPWINDi_r2_v1.2.,2013-01-02 00:01:00,
2013-01-01 19:06:00,25.8,13.9,29.97,WSW,238,1.0,4.0,60,0.00,,,0.03,HR-IXPWINDi_r2_v1.2.,2013-01-02 00:06:00,
2013-01-01 19:11:00,25.8,13.5,29.98,WSW,248,0.0,4.0,59,0.00,,,0.03,HR-IXPWINDi_r2_v1.2.,2013-01-02 00:11:00,
2013-01-01 19:17:00,25.7,13.4,29.98,WSW,245,0.0,4.0,59,0.00,,,0.03,HR-IXPWINDi_r2_v1.2.,2013-01-02 00:17:00,
2013-01-01 19:22:00,25.5,13.2,29.98,WNW,293,1.0,2.0,59,0.00,,,0.03,HR-IXPWINDi_r2_v1.2.,2013-01-02 00:22:00,
2013-01-01 19:27:00,25.5,12.8,29.98,WSW,241,0.0,3.0,58,0.00,,,0.03,HR-IXPWINDi_r2_v1.2.,2013-01-02 00:27:00,
2013-01-01 19:32:00,25.5,12.8,29.99,West,259,1.0,3.0,58,0.00,,,0.03,HR-IXPWINDi_r2_v1.2.,2013-01-02 00:32:00,
2013-01-01 19:38:00,25.4,13.1,29.98,WSW,244,0.0,3.0,59,0.00,,,0.03,HR-IXPWINDi_r2_v1.2.,2013-01-02 00:38:00,
2013-01-01 19:43:00,25.1,12.8,29.98,WSW,240,1.0,2.0,59,0.00,,,0.03,HR-IXPWINDi_r2_v1.2.,2013-01-02 00:43:00,
2013-01-01 19:48:00,25.0,12.7,29.98,WSW,254,0.0,4.0,59,0.00,,,0.03,HR-IXPWINDi_r2_v1.2.,2013-01-02 00:48:00,
2013-01-01 19:53:00,24.8,12.5,29.98,NW,311,0.0,4.0,59,0.00,,,0.03,HR-IXPWINDi_r2_v1.2.,2013-01-02 00:53:00,
2013-01-01 19:58:00,24.4,12.2,29.98,West,278,1.0,3.0,59,0.00,,,0.03,HR-IXPWINDi_r2_v1.2.,2013-01-02 00:58:00,
2013-01-01 20:03:00,24.3,12.1,29.98,WNW,295,4.0,4.0,59,0.00,,,0.03,HR-IXPWINDi_r2_v1.2.,2013-01-02 01:03:00,
2013-01-01 20:09:00,24.2,11.6,29.99,NNW,342,0.0,5.0,58,0.00,,,0.03,HR-IXPWINDi_r2_v1.2.,2013-01-02 01:09:00,
2013-01-01 20:14:00,23.9,11.3,29.98,WSW,250,2.0,5.0,58,0.00,,,0.03,HR-IXPWINDi_r2_v1.2.,2013-01-02 01:14:00,
2013-01-01 20:19:00,23.8,10.4,29.98,NNW,335,1.0,6.0,56,0.00,,,0.03,HR-IXPWINDi_r2_v1.2.,2013-01-02 01:19:00,
2013-01-01 20:24:00,23.7,10.3,29.99,WNW,291,1.0,6.0,56,0.00,,,0.03,HR-IXPWINDi_r2_v1.2.,2013-01-02 01:24:00,
2013-01-01 20:30:00,23.6,9.8,29.99,WSW,245,1.0,6.0,55,0.00,,,0.03,HR-IXPWINDi_r2_v1.2.,2013-01-02 01:30:00,
2013-01-01 20:35:00,23.3,9.6,29.99,NNE,15,1.0,6.0,55,0.00,,,0.03,HR-IXPWINDi_r2_v1.2.,2013-01-02 01:35:00,
2013-01-01 20:40:00,23.1,9.8,29.99,NNW,334,1.0,6.0,56,0.00,,,0.03,HR-IXPWINDi_r2_v1.2.,2013-01-02 01:40:00,
2013-01-01 20:45:00,22.8,9.9,29.99,North,349,2.0,3.0,57,0.00,,,0.03,HR-IXPWINDi_r2_v1.2.,2013-01-02 01:45:00,
2013-01-01 20:50:00,22.5,9.2,29.99,NNW,337,3.0,3.0,56,0.00,,,0.03,HR-IXPWINDi_r2_v1.2.,2013-01-02 01:50:00,
2013-01-01 20:56:00,22.4,9.5,29.99,SW,233,0.0,4.0,57,0.00,,,0.03,HR-IXPWINDi_r2_v1.2.,2013-01-02 01:56:00,
2013-01-01 21:01:00,22.2,9.3,30.00,West,280,2.0,4.0,57,0.00,,,0.03,HR-IXPWINDi_r2_v1.2.,2013-01-02 02:01:00,
2013-01-01 21:06:00,22.2,9.3,30.00,NNW,348,0.0,6.0,57,0.00,,,0.03,HR-IXPWINDi_r2_v1.2.,2013-01-02 02:06:00,
2013-01-01 21:11:00,22.0,9.1,30.00,SW,220,1.0,6.0,57,0.00,,,0.03,HR-IXPWINDi_r2_v1.2.,2013-01-02 02:11:00,
2013-01-01 21:16:00,21.9,9.1,30.01,SW,219,0.0,5.0,57,0.00,,,0.03,HR-IXPWINDi_r2_v1.2.,2013-01-02 02:16:00,
2013-01-01 21:22:00,21.6,9.2,30.01,SW,219,0.0,5.0,58,0.00,,,0.03,HR-IXPWINDi_r2_v1.2.,2013-01-02 02:22:00,
2013-01-01 21:27:00,21.3,8.9,30.01,West,273,0.0,3.0,58,0.00,,,0.03,HR-IXPWINDi_r2_v1.2.,2013-01-02 02:27:00,
2013-01-01 21:32:00,21.3,8.9,30.01,SW,229,1.0,3.0,58,0.00,,,0.03,HR-IXPWINDi_r2_v1.2.,2013-01-02 02:32:00,
2013-01-01 21:37:00,21.1,9.1,30.00,WNW,290,0.0,3.0,59,0.00,,,0.03,HR-IXPWINDi_r2_v1.2.,2013-01-02 02:37:00,
2013-01-01 21:42:00,20.6,8.6,30.01,SSW,194,0.0,1.0,59,0.00,,,0.03,HR-IXPWINDi_r2_v1.2.,2013-01-02 02:42:00,
2013-01-01 21:47:00,20.3,8.7,30.01,SE,138,0.0,1.0,60,0.00,,,0.03,HR-IXPWINDi_r2_v1.2.,2013-01-02 02:47:00,
2013-01-01 21:53:00,19.9,9.0,30.01,SSE,156,0.0,2.0,62,0.00,,,0.03,HR-IXPWINDi_r2_v1.2.,2013-01-02 02:53:00,
2013-01-01 21:58:00,19.5,9.0,30.01,SSE,156,0.0,2.0,63,0.00,,,0.03,HR-IXPWINDi_r2_v1.2.,2013-01-02 02:58:00,
2013-01-01 22:03:00,18.9,9.5,30.01,SSE,156,0.0,1.0,66,0.00,,,0.03,HR-IXPWINDi_r2_v1.2.,2013-01-02 03:03:00,
2013-01-01 22:09:00,18.6,8.9,30.02,SSE,156,0.0,1.0,65,0.00,,,0.03,HR-IXPWINDi_r2_v1.2.,2013-01-02 03:09:00,
2013-01-01 22:14:00,18.4,8.7,30.02,SSE,156,0.0,1.0,65,0.00,,,0.03,HR-IXPWINDi_r2_v1.2.,2013-01-02 03:14:00,
2013-01-01 22:19:00,18.1,8.7,30.02,SSE,156,0.0,0.0,66,0.00,,,0.03,HR-IXPWINDi_r2_v1.2.,2013-01-02 03:19:00,
2013-01-01 22:24:00,17.5,8.1,30.02,SSE,156,0.0,0.0,66,0.00,,,0.03,HR-IXPWINDi_r2_v1.2.,2013-01-02 03:24:00,
2013-01-01 22:29:00,17.3,8.0,30.02,SSE,156,0.0,0.0,66,0.00,,,0.03,HR-IXPWINDi_r2_v1.2.,2013-01-02 03:29:00,
2013-01-01 22:35:00,17.7,8.3,30.03,WSW,251,0.0,1.0,66,0.00,,,0.03,HR-IXPWINDi_r2_v1.2.,2013-01-02 03:35:00,
2013-01-01 22:40:00,17.8,8.1,30.03,WSW,252,0.0,1.0,65,0.00,,,0.03,HR-IXPWINDi_r2_v1.2.,2013-01-02 03:40:00,
2013-01-01 22:45:00,17.8,8.1,30.02,WSW,251,0.0,0.0,65,0.00,,,0.03,HR-IXPWINDi_r2_v1.2.,2013-01-02 03:45:00,
2013-01-01 22:50:00,17.4,7.7,30.02,WSW,252,0.0,0.0,65,0.00,,,0.03,HR-IXPWINDi_r2_v1.2.,2013-01-02 03:50:00,
2013-01-01 22:55:00,16.8,7.8,30.02,WSW,252,0.0,0.0,67,0.00,,,0.03,HR-IXPWINDi_r2_v1.2.,2013-01-02 03:55:00,
2013-01-01 23:01:00,16.7,8.0,30.03,WSW,252,0.0,0.0,68,0.00,,,0.03,HR-IXPWINDi_r2_v1.2.,2013-01-02 04:01:00,
2013-01-01 23:06:00,16.7,7.7,30.03,WSW,251,0.0,0.0,67,0.00,,,0.03,HR-IXPWINDi_r2_v1.2.,2013-01-02 04:06:00,
2013-01-01 23:11:00,16.8,7.5,30.03,WSW,251,0.0,0.0,66,0.00,,,0.03,HR-IXPWINDi_r2_v1.2.,2013-01-02 04:11:00,
2013-01-01 23:16:00,17.2,7.9,30.03,WSW,252,0.0,0.0,66,0.00,,,0.03,HR-IXPWINDi_r2_v1.2.,2013-01-02 04:16:00,
2013-01-01 23:22:00,17.3,7.6,30.03,WSW,252,0.0,0.0,65,0.00,,,0.03,HR-IXPWINDi_r2_v1.2.,2013-01-02 04:22:00,
2013-01-01 23:27:00,17.6,7.6,30.04,WSW,251,0.0,0.0,64,0.00,,,0.03,HR-IXPWINDi_r2_v1.2.,2013-01-02 04:27:00,
2013-01-01 23:32:00,17.5,8.1,30.04,WSW,252,0.0,0.0,66,0.00,,,0.03,HR-IXPWINDi_r2_v1.2.,2013-01-02 04:32:00,
2013-01-01 23:37:00,17.3,8.3,30.03,WSW,252,0.0,0.0,67,0.00,,,0.03,HR-IXPWINDi_r2_v1.2.,2013-01-02 04:37:00,
2013-01-01 23:42:00,17.3,7.6,30.03,WSW,252,1.0,1.0,65,0.00,,,0.03,HR-IXPWINDi_r2_v1.2.,2013-01-02 04:42:00,
2013-01-01 23:48:00,17.6,7.9,30.03,WSW,254,0.0,2.0,65,0.00,,,0.03,HR-IXPWINDi_r2_v1.2.,2013-01-02 04:48:00,
2013-01-01 23:53:00,17.4,8.4,30.03,West,259,0.0,2.0,67,0.00,,,0.03,HR-IXPWINDi_r2_v1.2.,2013-01-02 04:53:00,
2013-01-01 23:58:00,17.5,8.1,30.03,SW,224,0.0,2.0,66,0.00,,,0.03,HR-IXPWINDi_r2_v1.2.,2013-01-02 04:58:00,